Grand Forks AFB, ND

11:31 PM CDT on August 19, 2017 (GMT -0500)
Grand Forks Air Force Base

Weather History for KRDR - January, 2014

Change the Weather History Date:

Wednesday, January 22, 2014

  Actual Average Record
Temperature  
Mean Temperature -4 °F -  
Max Temperature 5 °F 13 °F 39 °F (2015)
Min Temperature -13 °F 0 °F -23 °F (2011)
Degree Days  
Heating Degree Days 69    
Moisture  
Dew Point -11 °F    
Average Humidity 76    
Maximum Humidity 85    
Minimum Humidity 63    
Precipitation  
Precipitation 0.00 in - - ()
Sea Level Pressure  
Sea Level Pressure 30.31 in    
Wind  
Wind Speed 17 mph (North)    
Max Wind Speed 32 mph    
Max Gust Speed 41 mph    
Visibility 4 miles    
Events Snow    
Averages and records for this station are not official NWS values.
T = Trace of Precipitation, MM = Missing Value Source: NWS Daily Summary

Daily Weather History Graph

Daily Weather History Graph

Search for Another Location

Airport or City:

Trip Planner

Search our weather history database for the weather conditions in past years. The results will help you decide how hot, cold, wet, or windy it might be!

Date:

Astronomy

Jan. 22, 2014 Rise Set
Actual Time 8:08 AM CST 5:14 PM CST
Civil Twilight 7:34 AM CST 5:48 PM CST
Nautical Twilight 6:56 AM CST 6:26 PM CST
Astronomical Twilight 6:19 AM CST 7:03 PM CST
Moon No Moon Rise 10:39 AM CST (1/22)
Length of Visible Light 10h 14m
Length of Day
9h 05m
Waning Gibbous, 65% of the Moon is Illuminated
Jan 22
Waning Gibbous
Jan 23
Last Quarter
Jan 30
New
Feb 6
First Quarter
Feb 14
Full

Hourly Weather History & Observations

Time (CST) Temp. Windchill Dew Point Humidity Pressure Visibility Wind Dir Wind Speed Gust Speed Precip Events Conditions
12:13 AM 5.0 °F -2.1 °F -0.4 °F 78% 30.02 in 7.0 mi West 3.5 mph - N/A Snow Light Snow
12:19 AM 5.0 °F -8.1 °F -0.4 °F 78% 30.01 in 8.0 mi NW 8.1 mph - N/A   Overcast
12:23 AM 5.0 °F -10.8 °F -0.4 °F 78% 30.05 in 7.0 mi NNW 11.5 mph - N/A Snow Light Snow
12:24 AM 5.0 °F -10.0 °F -0.4 °F 78% 30.05 in 6.0 mi NNW 10.4 mph - N/A Snow Light Snow
12:29 AM 5.0 °F -8.1 °F -0.4 °F 78% 30.05 in 2.5 mi NW 8.1 mph - N/A Snow Light Snow
12:34 AM 5.0 °F -8.1 °F -0.4 °F 78% 30.05 in 1.8 mi NNW 8.1 mph - N/A Snow Light Snow
12:44 AM 5.0 °F -8.1 °F 1.4 °F 85% 30.05 in 2.0 mi NNW 8.1 mph - N/A Snow Light Snow
12:49 AM 5.0 °F -9.1 °F 1.4 °F 85% 30.05 in 3.0 mi NNW 9.2 mph - N/A Snow Light Snow
12:54 AM 5.0 °F -8.1 °F 1.4 °F 85% 30.05 in 4.0 mi NNW 8.1 mph - N/A Snow Light Snow
12:58 AM 5.4 °F -8.6 °F 1.2 °F 83% 30.14 in 4.0 mi North 9.2 mph - 0.00 in Snow Light Snow
1:08 AM 5.0 °F -8.1 °F 1.4 °F 85% 30.05 in 6.0 mi North 8.1 mph - N/A Snow Light Snow
1:23 AM 5.0 °F -8.1 °F 1.4 °F 85% 30.05 in 5.0 mi North 8.1 mph - N/A Snow Light Snow
1:38 AM 5.0 °F -4.1 °F 1.4 °F 85% 30.06 in 5.0 mi NNW 4.6 mph - N/A Snow Light Snow
1:58 AM 4.6 °F -6.0 °F 0.5 °F 83% 30.15 in 4.0 mi NNW 5.8 mph - 0.00 in Snow Light Snow
2:03 AM 5.0 °F -5.6 °F 1.4 °F 85% 30.06 in 5.0 mi NNW 5.8 mph - N/A Snow Light Snow
2:08 AM 5.0 °F -5.6 °F 1.4 °F 85% 30.06 in 4.0 mi NNW 5.8 mph - N/A Snow Light Snow
2:13 AM 5.0 °F -8.1 °F 1.4 °F 85% 30.06 in 4.0 mi North 8.1 mph - N/A Snow Light Snow
2:18 AM 5.0 °F -8.1 °F 1.4 °F 85% 30.07 in 4.0 mi NNW 8.1 mph - N/A Snow Light Snow
2:33 AM 5.0 °F -9.1 °F 1.4 °F 85% 30.07 in 6.0 mi North 9.2 mph - N/A Snow Light Snow
2:53 AM 5.0 °F -14.7 °F -0.4 °F 78% 30.09 in 4.0 mi North 18.4 mph - N/A Snow Light Snow
2:58 AM 4.5 °F -17.4 °F -0.2 °F 81% 30.18 in 2.5 mi North 23.0 mph - 0.00 in Snow Blowing Snow
3:01 AM 5.0 °F -18.7 °F -0.4 °F 78% 30.09 in 1.2 mi North 28.8 mph 35.7 mph N/A Snow Blowing Snow
3:06 AM 3.2 °F -21.5 °F -2.2 °F 78% 30.09 in 0.5 mi North 29.9 mph 36.8 mph N/A Snow Blowing Snow
3:22 AM 1.4 °F -21.9 °F -2.2 °F 85% 30.10 in 0.8 mi North 24.2 mph 31.1 mph N/A Snow Light Snow
3:32 AM 1.4 °F -22.7 °F -2.2 °F 85% 30.12 in 0.5 mi North 26.5 mph 33.4 mph N/A Snow Snow
3:42 AM 1.4 °F -22.3 °F -4.0 °F 78% 30.12 in 0.5 mi North 25.3 mph 36.8 mph N/A Snow Snow
3:47 AM -0.4 °F -24.7 °F -4.0 °F 85% 30.13 in 0.8 mi North 25.3 mph 32.2 mph N/A Snow Blowing Snow
3:52 AM -0.4 °F -24.3 °F -4.0 °F 85% 30.13 in 0.8 mi North 24.2 mph 32.2 mph N/A Snow Blowing Snow
3:57 AM -0.4 °F -24.7 °F -5.8 °F 78% 30.13 in 1.0 mi North 25.3 mph 32.2 mph N/A Snow Blowing Snow
3:58 AM -0.2 °F -24.0 °F -5.3 °F 79% 30.22 in 1.0 mi North 24.2 mph 32.2 mph 0.00 in Snow Blowing Snow
4:03 AM -0.4 °F -25.6 °F -5.8 °F 78% 30.14 in 1.2 mi North 27.6 mph 33.4 mph N/A Snow Blowing Snow
4:08 AM -0.4 °F -24.7 °F -5.8 °F 78% 30.15 in 1.0 mi North 25.3 mph 33.4 mph N/A Snow Blowing Snow
4:13 AM -0.4 °F -22.8 °F -5.8 °F 78% 30.15 in 1.0 mi North 20.7 mph 33.4 mph N/A Snow Blowing Snow
4:18 AM -2.2 °F -28.8 °F -5.8 °F 85% 30.15 in 0.8 mi North 29.9 mph 33.4 mph N/A   Light Freezing Rain
4:28 AM -2.2 °F -26.2 °F -7.6 °F 78% 30.17 in 1.0 mi North 23.0 mph - N/A Snow Blowing Snow
4:33 AM -4.0 °F -29.1 °F -7.6 °F 85% 30.17 in 1.5 mi North 24.2 mph - N/A   Light Freezing Rain
4:38 AM -4.0 °F -29.1 °F -9.4 °F 78% 30.17 in 1.8 mi North 24.2 mph 31.1 mph N/A   Light Freezing Rain
4:48 AM -4.0 °F -28.6 °F -9.4 °F 78% 30.18 in 2.0 mi North 23.0 mph 31.1 mph N/A   Light Freezing Rain
4:58 AM -4.0 °F -28.6 °F -9.4 °F 78% 30.27 in 1.8 mi North 23.0 mph - 0.00 in   Light Freezing Rain
5:03 AM -4.0 °F -29.6 °F -9.4 °F 78% 30.18 in 1.5 mi North 25.3 mph 29.9 mph N/A   Light Freezing Rain
5:08 AM -4.0 °F -29.6 °F -9.4 °F 78% 30.19 in 1.2 mi North 25.3 mph 29.9 mph N/A   Light Freezing Rain
5:13 AM -4.0 °F -30.0 °F -9.4 °F 78% 30.19 in 1.0 mi North 26.5 mph - N/A   Light Freezing Rain
5:33 AM -4.0 °F -29.1 °F -9.4 °F 78% 30.20 in 1.2 mi North 24.2 mph 35.7 mph N/A   Light Freezing Rain
5:38 AM -5.8 °F -31.5 °F -9.4 °F 84% 30.21 in 1.5 mi North 24.2 mph 29.9 mph N/A   Light Freezing Rain
5:48 AM -5.8 °F -32.0 °F -11.2 °F 77% 30.21 in 1.2 mi North 25.3 mph 36.8 mph N/A Snow Blowing Snow
5:53 AM -5.8 °F -31.0 °F -11.2 °F 77% 30.22 in 1.0 mi North 23.0 mph 36.8 mph N/A Snow Blowing Snow
5:58 AM -5.8 °F -33.3 °F -11.2 °F 77% 30.32 in 1.2 mi North 28.8 mph 34.5 mph 0.00 in   Light Freezing Rain
6:03 AM -5.8 °F -32.9 °F -11.2 °F 77% 30.22 in 1.0 mi North 27.6 mph 38.0 mph N/A Snow Blowing Snow
6:18 AM -7.6 °F -35.7 °F -13.0 °F 77% 30.23 in 0.8 mi North 28.8 mph 36.8 mph N/A Snow Blowing Snow
6:23 AM -7.6 °F -34.8 °F -13.0 °F 77% 30.24 in 0.8 mi North 26.5 mph 36.8 mph N/A Snow Blowing Snow
6:28 AM -7.6 °F -32.3 °F -13.0 °F 77% 30.25 in 1.2 mi North 20.7 mph - N/A Snow Blowing Snow
6:33 AM -7.6 °F -36.1 °F -13.0 °F 77% 30.25 in 1.5 mi North 29.9 mph 39.1 mph N/A Snow Blowing Snow
6:38 AM -7.6 °F -35.7 °F -13.0 °F 77% 30.25 in 1.0 mi North 28.8 mph 39.1 mph N/A Snow Blowing Snow
6:43 AM -7.6 °F -35.3 °F -13.0 °F 77% 30.25 in 0.8 mi North 27.6 mph 39.1 mph N/A Snow Blowing Snow
6:53 AM -9.4 °F -36.3 °F -13.0 °F 84% 30.27 in 1.0 mi North 24.2 mph 35.7 mph N/A Snow Blowing Snow
6:58 AM -9.4 °F -39.0 °F -13.0 °F 84% 30.37 in 1.2 mi North 31.1 mph 38.0 mph 0.00 in Snow Blowing Snow
7:03 AM -9.4 °F -36.8 °F -14.8 °F 77% 30.28 in 1.2 mi North 25.3 mph 38.0 mph N/A Snow Blowing Snow
7:13 AM -9.4 °F -38.2 °F -14.8 °F 77% 30.28 in 1.5 mi North 28.8 mph 38.0 mph N/A   Light Freezing Rain
7:18 AM -9.4 °F -36.3 °F -14.8 °F 77% 30.29 in 1.2 mi North 24.2 mph 38.0 mph N/A Snow Blowing Snow
7:23 AM -9.4 °F -35.8 °F -14.8 °F 77% 30.30 in 1.5 mi North 23.0 mph 38.0 mph N/A Snow Blowing Snow
7:28 AM -9.4 °F -36.8 °F -14.8 °F 77% 30.30 in 2.0 mi North 25.3 mph 32.2 mph N/A   Light Freezing Rain
7:33 AM -9.4 °F -36.8 °F -14.8 °F 77% 30.30 in 1.8 mi North 25.3 mph 34.5 mph N/A   Light Freezing Rain
7:38 AM -9.4 °F -38.2 °F -16.6 °F 71% 30.30 in 1.0 mi North 28.8 mph 41.4 mph N/A Snow Blowing Snow
7:48 AM -11.2 °F -37.6 °F -16.6 °F 77% 30.32 in 1.2 mi North 21.9 mph - N/A Snow Blowing Snow
7:53 AM -11.2 °F -40.6 °F -16.6 °F 77% 30.32 in 1.8 mi North 28.8 mph 34.5 mph N/A   Light Freezing Rain
7:58 AM -10.3 °F -38.5 °F -16.1 °F 76% 30.42 in 1.8 mi North 26.5 mph 34.5 mph 0.00 in Snow Blowing Snow
8:03 AM -11.2 °F -39.7 °F -16.6 °F 77% 30.32 in 1.5 mi North 26.5 mph 34.5 mph N/A Snow Blowing Snow
8:13 AM -11.2 °F -38.2 °F -16.6 °F 77% 30.32 in 2.5 mi North 23.0 mph 29.9 mph N/A   Light Freezing Rain
8:23 AM -11.2 °F -39.7 °F -16.6 °F 77% 30.33 in 1.5 mi North 26.5 mph 33.4 mph N/A   Light Freezing Rain
8:28 AM -11.2 °F -38.2 °F -18.4 °F 70% 30.34 in 1.2 mi North 23.0 mph 32.2 mph N/A Snow Blowing Snow
8:38 AM -11.2 °F -41.9 °F -18.4 °F 70% 30.34 in 0.8 mi North 32.2 mph 38.0 mph N/A Snow Blowing Snow
8:43 AM -13.0 °F -42.1 °F -18.4 °F 77% 30.35 in 0.8 mi North 26.5 mph 38.0 mph N/A Snow Blowing Snow
8:48 AM -13.0 °F -40.6 °F -18.4 °F 77% 30.36 in 1.0 mi North 23.0 mph 38.0 mph N/A Snow Blowing Snow
8:53 AM -13.0 °F -41.1 °F -18.4 °F 77% 30.36 in 1.5 mi North 24.2 mph 32.2 mph N/A   Light Freezing Rain
8:58 AM -12.3 °F -41.6 °F -18.2 °F 75% 30.46 in 1.2 mi North 27.6 mph 34.5 mph 0.00 in   Light Freezing Rain
9:03 AM -13.0 °F -40.0 °F -18.4 °F 77% 30.37 in 1.0 mi North 21.9 mph 34.5 mph N/A   Light Freezing Rain
9:08 AM -13.0 °F -38.2 °F -18.4 °F 77% 30.38 in 1.8 mi North 18.4 mph - N/A   Light Freezing Rain
9:13 AM -13.0 °F -39.4 °F -18.4 °F 77% 30.39 in 2.0 mi North 20.7 mph 27.6 mph N/A   Light Freezing Rain
9:18 AM -13.0 °F -40.0 °F -18.4 °F 77% 30.39 in 1.5 mi North 21.9 mph 33.4 mph N/A   Light Freezing Rain
9:28 AM -13.0 °F -40.0 °F -18.4 °F 77% 30.40 in 2.0 mi North 21.9 mph 27.6 mph N/A   Light Freezing Rain
9:43 AM -13.0 °F -41.1 °F -18.4 °F 77% 30.41 in 1.8 mi North 24.2 mph 33.4 mph N/A   Light Freezing Rain
9:53 AM -13.0 °F -40.6 °F -18.4 °F 77% 30.41 in 2.0 mi North 23.0 mph - N/A   Light Freezing Rain
9:58 AM -12.3 °F -38.5 °F -18.9 °F 72% 30.53 in 2.0 mi North 20.7 mph 27.6 mph 0.00 in   Light Freezing Rain
10:28 AM -11.2 °F -38.2 °F -18.4 °F 70% 30.43 in 1.8 mi North 23.0 mph 31.1 mph N/A   Light Freezing Rain
10:33 AM -11.2 °F -37.6 °F -18.4 °F 70% 30.44 in 2.0 mi North 21.9 mph 29.9 mph N/A   Light Freezing Rain
10:43 AM -11.2 °F -38.7 °F -18.4 °F 70% 30.44 in 2.5 mi North 24.2 mph - N/A   Light Freezing Rain
10:58 AM -11.4 °F -36.0 °F -18.6 °F 70% 30.55 in 3.0 mi North 18.4 mph - 0.00 in   Light Freezing Rain
11:18 AM -11.2 °F -37.0 °F -18.4 °F 70% 30.46 in 4.0 mi North 20.7 mph - N/A   Light Freezing Rain
11:53 AM -9.4 °F -34.1 °F -16.6 °F 71% 30.46 in 7.0 mi North 19.6 mph 27.6 mph N/A   Light Freezing Rain
11:58 AM -9.9 °F -35.4 °F -17.1 °F 71% 30.57 in 7.0 mi North 20.7 mph - 0.00 in   Light Freezing Rain
12:27 PM -9.4 °F -33.5 °F -16.6 °F 71% 30.47 in 9.0 mi North 18.4 mph 24.2 mph N/A   Overcast
12:52 PM -9.4 °F -33.5 °F -16.6 °F 71% 30.48 in 10.0 mi North 18.4 mph - N/A   Scattered Clouds
12:58 PM -9.0 °F -32.4 °F -17.3 °F 67% 30.58 in 10.0 mi North 17.3 mph - 0.00 in   Scattered Clouds
1:55 PM -9.4 °F -34.1 °F -16.6 °F 71% 30.48 in 10.0 mi North 19.6 mph 25.3 mph N/A Snow Light Snow
1:58 PM -8.9 °F -33.4 °F -17.1 °F 67% 30.58 in 10.0 mi North 19.6 mph 25.3 mph 0.00 in Snow Light Snow
2:06 PM -9.4 °F -34.7 °F -16.6 °F 71% 30.49 in 10.0 mi North 20.7 mph - N/A   Scattered Clouds
2:16 PM -9.4 °F -34.7 °F -16.6 °F 71% 30.49 in 10.0 mi North 20.7 mph 26.5 mph N/A   Mostly Cloudy
2:17 PM -9.4 °F -34.7 °F -16.6 °F 71% 30.49 in 10.0 mi North 20.7 mph 26.5 mph N/A Snow Light Snow
2:25 PM -7.6 °F -31.1 °F -16.6 °F 65% 30.50 in 10.0 mi North 18.4 mph - N/A   Mostly Cloudy
2:35 PM -7.6 °F -30.5 °F -16.6 °F 65% 30.50 in 10.0 mi North 17.3 mph - N/A   Scattered Clouds
2:58 PM -7.8 °F -29.3 °F -16.2 °F 67% 30.60 in 10.0 mi North 15.0 mph - 0.00 in   Clear
3:58 PM -7.1 °F -27.6 °F -16.6 °F 63% 30.63 in 10.0 mi NNW 13.8 mph - N/A   Clear
4:58 PM -7.8 °F -29.3 °F -16.6 °F 65% 30.66 in 10.0 mi NNW 15.0 mph - N/A   Scattered Clouds
5:25 PM -7.6 °F -26.6 °F -16.6 °F 65% 30.56 in 10.0 mi NNW 11.5 mph - N/A   Partly Cloudy
5:58 PM -9.8 °F -28.3 °F -18.0 °F 67% 30.68 in 10.0 mi North 10.4 mph - N/A   Clear
6:48 PM -11.2 °F -29.0 °F -18.4 °F 70% 30.59 in 10.0 mi NNW 9.2 mph - N/A   Mostly Cloudy
6:58 PM -10.3 °F -29.0 °F -18.4 °F 67% 30.71 in 10.0 mi NNW 10.4 mph - N/A   Mostly Cloudy
7:23 PM -11.2 °F -27.8 °F -20.2 °F 64% 30.61 in 10.0 mi NNW 8.1 mph - N/A   Scattered Clouds
7:58 PM -11.9 °F -31.0 °F -19.8 °F 68% 30.74 in 10.0 mi NNW 10.4 mph - N/A   Partly Cloudy
8:58 PM -13.0 °F -32.4 °F -20.2 °F 70% 30.75 in 10.0 mi NNW 10.4 mph - N/A   Mostly Cloudy
9:23 PM -11.2 °F -30.1 °F -20.2 °F 64% 30.64 in 10.0 mi NNW 10.4 mph - N/A   Scattered Clouds
9:58 PM -11.9 °F -31.0 °F -20.0 °F 67% 30.75 in 10.0 mi NNW 10.4 mph - N/A   Clear
10:58 PM -13.5 °F -30.7 °F -21.1 °F 69% 30.77 in 10.0 mi NNW 8.1 mph - N/A   Clear
11:58 PM -13.9 °F -31.1 °F -21.1 °F 70% 30.78 in 10.0 mi NNW 8.1 mph - N/A   Clear